TIME,DELAY(SENSOR),PRES,T(CTD),SAL,OXYGEN,RAWTEMP,T(OPTODE),TCPHASE,FLUOR,BETA(BETA700),BETA(BETA412),BETA(BETA440),CDOM,C(CSC),ED(ED412.40),ED(ED444.00),ED(ED489.70),ED(ED554.30),LU(LU411.80),LU(LU443.40),LU(LU489.60),LU(LU554.10),COMP,TILTX,TILTX(TILTY),CHECK
1350335741,5811,497.5299987792969000,6.7184000015258790,34.1240005493164060,85.6077270507812500,596.3250732421875000,6.7029151916503910,48.2084388732910160,51,105,88,81,79,15178,2147749805,2147423286,2148007670,2147873142,2147632539,2147077147,2148243968,2147200630,1614,4,13,47539
1350335892,5811,487.0899963378906000,6.8660001754760740,34.1227989196777340,90.9300079345703100,591.8209228515625000,6.8481640815734860,47.5435905456543000,51,105,89,81,78,15177,2147751917,2147421878,2148006500,2147872045,2147631286,2147077120,2148244324,2147202294,444,5,13,60870
1350336066,5807,473.4500122070312500,7.3502998352050780,34.1212005615234400,100.5085983276367200,576.6525878906250000,7.3359260559082030,46.2744293212890600,51,105,87,80,78,15177,2147749750,2147421787,2148005860,2147873188,2147627648,2147076699,2148246317,2147203044,1435,4,12,31140
1350336181,5809,462.3200073242187500,7.4822998046875000,34.1214981079101560,105.4486999511718800,572.1348876953125000,7.4807991981506350,45.6883506774902340,51,106,86,80,78,15180,2147748306,2147424182,2148001664,2147872320,2147628982,2147084790,2148243849,2147205458,197,5,13,51110
1350336298,5804,450.6000061035156000,7.6560001373291020,34.1200981140136700,111.2822036743164000,566.7825927734375000,7.6522059440612790,45.0112190246582000,51,105,90,81,77,15175,2147748242,2147421540,2148003757,2147875602,2147623122,2147087378,2148242953,2147200658,3125,4,13,10513
1350336401,5808,440.1499938964844000,7.8569998741149900,34.1174011230468750,117.7847976684570300,560.8961181640625000,7.8404312133789060,44.2758407592773440,50,105,87,80,77,15174,2147746706,2147425051,2148003867,2147873280,2147628288,2147085312,2148236589,2147200100,2406,4,13,14225
1350336516,5807,428.8900146484375000,8.1063995361328120,34.1072998046875000,125.5190963745117200,552.6705932617188000,8.1029548645019530,43.4079399108886700,50,105,88,80,76,15177,2147744566,2147419574,2148003529,2147872457,2147627145,2147084708,2148236562,2147198491,2323,5,13,23432
1350336633,5811,418.1600036621094000,8.2293996810913090,34.1058998107910160,135.5527038574218800,549.2269287109375000,8.2126941680908200,42.4454002380371100,50,103,90,81,75,15178,2147743104,2147421924,2148001892,2147872996,2147622784,2147082267,2148232960,2147201142,3015,5,13,49621
1350336760,5808,407.4500122070312500,8.6135997772216800,34.0973014831543000,148.8569030761718800,537.1431274414062000,8.5970039367675780,41.1110496520996100,50,105,89,82,74,15179,2147747291,2147426121,2148001078,2147871634,2147621412,2147090230,2148232704,2147203117,3542,4,13,53832
1350336899,5810,396.4800109863281000,9.0037002563476560,34.1062011718750000,160.4539031982422000,525.0471191406250000,8.9805450439453120,39.9831886291503900,50,105,87,80,75,15174,2147743744,2147421760,2148003712,2147874331,2147619145,2147093165,2148229924,2147199670,2824,5,13,63193
1350337029,5811,385.6700134277344000,9.4490003585815430,34.1148986816406250,171.0684051513672000,510.8630065917969000,9.4288797378540040,38.9459686279296900,50,106,88,81,73,15178,2147738697,2147423232,2147999972,2147872347,2147616795,2147090788,2148236388,2147201243,2590,4,13,61383
1350337156,5809,374.0100097656250000,9.8027000427246100,34.1249008178710940,181.1943969726562500,499.5575866699219000,9.7851772308349610,38.0398788452148440,50,107,89,81,71,15176,2147735872,2147423689,2148002944,2147873316,2147616841,2147091419,2148229494,2147206134,1934,4,13,46728
1350337273,5809,362.3999938964844000,10.0052995681762700,34.1328010559082000,187.5509033203125000,493.0621948242187500,9.9894838333129880,37.5020408630371100,50,104,86,80,71,15175,2147737490,2147423515,2148000950,2147872813,2147616173,2147098176,2148228598,2147201920,2027,4,14,40980
1350337388,5807,351.6300048828125000,10.2576999664306640,34.1405982971191400,191.6622009277343800,484.4625854492187500,10.2595300674438480,37.0884284973144500,50,106,88,80,72,15178,2147736164,2147422610,2148000438,2147873188,2147615341,2147105060,2148226962,2147204644,2062,4,13,8415
1350337527,5809,341.2200012207031000,10.6176004409790040,34.1529006958007800,196.0971069335937500,473.4768981933594000,10.6038103103637700,36.6218605041503900,48,105,88,80,71,15178,2147735698,2147422482,2148002733,2147874441,2147612928,2147111588,2148229065,2147205723,1724,4,13,12298
1350337729,5807,330.7500000000000000,11.1801996231079100,34.1694984436035160,206.2167053222656200,455.4681091308594000,11.1665496826171880,35.7062606811523440,48,104,89,81,70,15174,2147734061,2147425792,2148007040,2147873618,2147612132,2147109184,2148217883,2147205741,464,4,14,29430
1350337973,5808,318.4400024414062500,11.9239997863769530,34.2061996459960940,211.6343994140625000,428.9302978515625000,11.9924297332763670,34.9617614746093750,48,105,87,82,69,15175,2147732443,2147426550,2148006665,2147874779,2147606820,2147117540,2148219520,2147207780,1580,4,14,50087
1350338112,5809,307.5100097656250000,12.2615003585815430,34.2219009399414060,212.2516937255859400,420.4003906250000000,12.2570896148681640,34.7914390563964840,48,105,89,81,68,15172,2147727981,2147426413,2148012534,2147873069,2147604004,2147122761,2148214893,2147204763,1241,4,14,23170
1350338273,5807,292.6499938964844000,12.7944002151489260,34.2596015930175800,214.4490966796875000,403.1705017089844000,12.7906198501586910,34.3963317871093750,48,105,89,80,68,15174,2147729673,2147428434,2148018038,2147873965,2147596269,2147123172,2148216484,2147207433,663,3,13,59958
1350338376,5811,281.4800109863281000,13.2536001205444340,34.2811012268066400,213.3925933837890600,387.6742858886719000,13.2693395614624020,34.2164192199707000,48,107,86,81,68,15169,2147727369,2147429814,2148028489,2147875227,2147598107,2147133860,2148221979,2147208722,3478,3,13,36314
1350338479,5808,271.0400085449219000,13.8006000518798830,34.2985992431640600,213.8267059326172000,368.6046142578125000,13.8571100234985350,33.9006690979003900,48,103,91,79,68,15164,2147726866,2147433334,2148040795,2147873124,2147593910,2147135003,2148221376,2147208137,2156,3,13,38576
1350338598,5809,261.2399902343750000,14.5811004638671880,34.3758010864257800,214.3551940917968800,343.4461059570312500,14.6305999755859380,33.4932098388671900,49,104,88,79,67,15171,2147720832,2147438262,2148054829,2147872393,2147593069,2147142637,2148232128,2147210038,1279,3,14,47812
1350338797,5804,250.3500061035156200,15.4849004745483400,34.4743003845214840,215.4851989746093800,317.0965881347656000,15.4387102127075200,33.0420799255371100,48,104,91,80,67,15166,2147719936,2147445696,2148077860,2147871753,2147589010,2147158820,2148237897,2147209298,1172,3,14,41027
1350338977,5809,239.0800018310547000,16.2796001434326170,34.5788993835449200,215.4342041015625000,288.8615112304687500,16.3029403686523440,32.6362800598144500,49,106,87,79,67,15164,2147721444,2147457910,2148111323,2147873526,2147585270,2147166052,2148250578,2147213366,167,3,15,42859
1350339140,5809,228.1399993896484400,17.0557994842529300,34.6845016479492200,215.2409973144531200,264.3962097167969000,17.0507698059082030,32.2983207702636700,50,104,88,79,66,15162,2147718052,2147477394,2148158902,2147872521,2147582784,2147181613,2148263094,2147211776,1905,3,15,39609
1350339276,5810,215.8399963378906200,17.7903995513916000,34.7732009887695300,212.1316986083984400,239.7592926025390600,17.8033008575439450,32.1221809387207000,52,104,86,80,64,15157,2147719085,2147511862,2148240832,2147872694,2147580516,2147206957,2148303817,2147218916,1934,3,15,50492
1350339379,5808,204.7500000000000000,18.4109992980957030,34.8492012023925800,211.2879943847656200,220.1732940673828000,18.4014301300048830,31.8958396911621100,53,108,86,80,66,15152,2147728640,2147564123,2148351670,2147872292,2147580854,2147241965,2148352365,2147222454,2118,3,13,59068
1350339458,5809,196.3000030517578000,18.7737007141113280,34.8992004394531250,211.9875030517578000,208.2906951904297000,18.7643299102783200,31.6939601898193360,55,108,87,80,65,15151,2147745270,2147619465,2148471716,2147873910,2147584036,2147272978,2148404854,2147225170,2564,4,15,34836
1350339533,5804,188.6600036621093800,19.1660003662109380,34.9538993835449200,213.4947967529297000,193.7942962646484400,19.2071800231933600,31.4142704010009770,56,108,91,81,65,15149,2147765174,2147685440,2148606034,2147872365,2147589504,2147318336,2148474486,2147232758,3327,3,15,35046
1350339588,5807,183.7700042724609400,19.5259990692138670,35.0004997253418000,215.1811065673828000,180.6118011474609400,19.6100406646728500,31.1452102661132800,58,107,89,82,64,15143,2147780544,2147741010,2148713389,2147874550,2147593636,2147351890,2148526747,2147237522,2900,3,15,39931
1350339643,5809,179.2100067138672000,19.8782005310058600,35.0483016967773440,216.9889068603515600,171.8390960693359400,19.8782596588134770,30.9317893981933600,62,110,84,82,63,15146,2147800356,2147799067,2148833216,2147871094,2147603867,2147385837,2148574820,2147244013,2794,4,15,43264
1350339698,5809,174.6999969482422000,20.1173000335693360,35.0637016296386700,215.2816009521484400,164.2850952148437500,20.1093101501464840,30.9204502105712900,66,112,88,81,65,15139,2147825334,2147872603,2148976932,2147872411,2147610212,2147431872,2148639049,2147247222,3219,3,15,65441
1350339753,5807,170.5000000000000000,20.2234992980957030,35.0808982849121100,214.6941070556640600,160.5601043701172000,20.2232799530029300,30.9015407562255860,69,108,88,81,64,15138,2147855067,2147944713,2149112109,2147875638,2147622829,2147471360,2148700370,2147251264,2940,2,15,44514
1350339808,5805,166.4700012207031200,20.4817008972167970,35.1384010314941400,218.2837066650390600,152.6237030029297000,20.4661903381347660,30.6079502105712900,67,111,88,81,63,15131,2147888566,2148031853,2149272118,2147877686,2147634166,2147520859,2148772553,2147256411,2561,3,15,35648
1350339887,5809,161.5000000000000000,20.7896995544433600,35.1699981689453100,221.2550964355468800,142.2633972167968800,20.7834606170654300,30.3183994293212900,75,111,87,82,63,15127,2147929691,2148135021,2149477028,2147877476,2147655753,2147586505,2148865654,2147265709,2291,2,15,58128
1350339978,5806,157.6999969482422000,20.9081993103027340,35.1842002868652340,222.9485015869140600,138.3177947998047000,20.9043598175048830,30.1809196472167970,77,111,92,82,62,15124,2147971300,2148228013,2149656393,2147882550,2147671360,2147638409,2148950070,2147271899,1603,2,15,4709
1350340081,5807,153.9799957275390600,21.1779994964599600,35.2150001525878900,223.9812927246093800,130.7126007080078000,21.1374893188476560,30.0296096801757800,79,114,92,82,63,15121,2148033042,2148352841,2149892626,2147879405,2147697718,2147705371,2149049947,2147280347,798,3,15,32078
1350340222,5806,150.2799987792968800,21.4244003295898440,35.2351989746093750,227.7247924804687500,121.2152023315429700,21.4288291931152340,29.7211608886718750,86,115,90,81,61,15108,2148109696,2148504576,2150157906,2147882084,2147726857,2147785728,2149156105,2147286381,1422,2,15,35187
1350340373,5807,146.1000061035156200,21.6945991516113280,35.2448005676269500,230.2830963134765600,113.2093963623046900,21.6746006011962900,29.4936199188232420,91,116,90,81,62,15107,2148241472,2148737545,2150552292,2147888493,2147782537,2147912036,2149318582,2147300160,857,3,15,19347
1350340508,5809,141.5399932861328000,21.7642993927001950,35.2384986877441400,231.9454956054687500,110.4278030395507800,21.7600402832031250,29.3783893585205080,94,113,88,81,61,15102,2148434203,2149069558,2151100690,2147891282,2147856009,2148063387,2149543332,2147318601,572,2,15,56263
1350340587,5809,137.4299926757812500,21.8293991088867200,35.2397003173828100,232.8081054687500000,108.4186019897461000,21.8217697143554700,29.3115291595459000,97,115,88,81,61,15098,2148647378,2149426368,2151666139,2147898770,2147935570,2148235236,2149776822,2147337051,77,3,15,12289
1350340666,5807,133.0200042724609400,21.9743995666503900,35.2513008117675800,234.5279998779297000,104.2040023803711000,21.9512996673584000,29.1764507293701170,95,117,91,82,61,15094,2148940406,2149893650,2152408704,2147910226,2148051611,2148448813,2150071835,2147362916,3587,2,15,49047
1350340733,5807,129.6000061035156200,22.1578006744384770,35.2663002014160160,235.0520019531250000,97.1754531860351600,22.1674404144287100,29.0622997283935550,103,115,93,83,62,15093,2149186313,2150274477,2152966125,2147915529,2148149568,2148621476,2150294244,2147381769,2810,3,16,52901
1350340827,5806,126.0800018310546900,22.3262996673584000,35.2692985534668000,234.8453063964843800,92.2971191406250000,22.3175506591796880,29.0100097656250000,115,116,91,82,62,15078,2149529462,2150795995,2153748352,2147929993,2148283821,2148853083,2150586038,2147403830,2391,2,15,18409
1350340966,5811,122.0699996948242200,22.4514999389648440,35.2663993835449200,234.7295989990234400,89.4329376220703100,22.4057197570800780,28.9788093566894530,117,118,87,82,61,15073,2150058294,2151579355,2154886573,2147947227,2148490304,2149182235,2151000694,2147442578,1499,3,15,26921
1350341117,5806,117.9100036621093800,22.6389999389648440,35.2583007812500000,236.8522949218750000,82.1389770507812500,22.6303997039794920,28.7880897521972660,111,118,90,82,62,15065,2150889344,2152724041,2156482834,2147977380,2148813504,2149662948,2151584667,2147502253,1241,2,16,40651
1350341220,5807,113.8499984741211000,22.9199008941650400,35.2518005371093750,238.5193939208984400,73.0758514404296900,22.9098606109619140,28.5972003936767580,119,119,89,83,62,15057,2151788498,2153887963,2158016100,2148010084,2149152813,2150149595,2152178550,2147553856,2706,2,16,64461
1350341347,5806,110.1500015258789000,23.1893005371093750,35.2578010559082000,241.0807037353515600,64.6654586791992200,23.1694908142089840,28.3759098052978500,127,121,91,85,62,15045,2152923940,2155451236,2160008941,2148054582,2149635538,2150829293,2152943579,2147628790,1376,2,16,3840
1350341486,5807,105.7099990844726600,23.4214000701904300,35.2705001831054700,242.0617065429687500,56.8011894226074200,23.4125194549560550,28.2337799072265620,116,122,90,83,60,15050,2154781138,2157744768,2162713252,2148121133,2150371465,2151785929,2154053147,2147738660,3469,2,16,1413
1350341589,5809,101.8600006103515600,23.5109004974365230,35.2756996154785160,242.7035980224609400,53.9093704223632800,23.5019607543945300,28.1691703796386720,105,122,93,84,60,15037,2156698139,2160083867,2165260544,2148201965,2151150144,2152770322,2155128457,2147844635,2915,3,16,53990
1350341668,5807,98.8199996948242200,23.5566005706787100,35.2747993469238300,243.3919982910156200,52.4242210388183600,23.5479106903076170,28.1201190948486330,99,126,91,83,60,15043,2158592365,2162447405,2167941440,2148280384,2151958061,2153814226,2156232987,2147958838,2806,3,16,49708
1350341746,5811,95.0599975585937500,23.5683994293212900,35.2750015258789060,243.5933074951172000,51.7912597656250000,23.5674896240234380,28.1032791137695300,99,123,92,84,58,15040,2161695835,2166082989,2171917705,2148428388,2153304329,2155524068,2158008164,2148138331,75,2,15,28322
1350341801,5805,91.3099975585937500,23.7101001739501950,35.2711982727050800,243.6338043212890600,47.4749717712402340,23.7010993957519530,28.0480709075927730,97,123,91,84,60,15035,2165506486,2170595099,2176744804,2148629312,2155005238,2157649920,2160130578,2148365174,629,3,15,59143
1350341856,5808,87.6200027465820300,24.0195007324218750,35.2703018188476560,243.5971069335937500,38.2935295104980500,23.9855899810791000,27.9359493255615230,93,126,91,83,61,15024,2169096082,2174775606,2180979209,2148842002,2156774034,2159764288,2162157366,2148586450,1198,2,16,12715
1350341911,5808,84.3499984741211000,24.3770008087158200,35.2709999084472660,244.4268951416015600,26.5100097656250000,24.3513202667236330,27.7539691925048830,87,126,92,85,59,15038,2172176539,2178135616,2184144557,2149064640,2158464896,2161678592,2163914267,2148790162,1970,2,16,64124
1350341966,5806,81.8399963378906200,24.4554996490478500,35.2687988281250000,245.8827056884765600,23.9274902343750000,24.4315700531005860,27.6589202880859380,88,127,95,85,59,15027,2175444379,2182012004,2188369673,2149292626,2160073462,2163585334,2165665636,2148979730,1308,2,16,36100
1350342021,5803,79.9499969482421900,24.4920005798339840,35.2582015991210940,246.4853057861328000,22.3804893493652340,24.4796600341796880,27.6136398315429700,86,128,94,85,61,15031,2177606738,2184112384,2190348032,2149494646,2161300096,2164982061,2166924772,2149125138,1045,2,16,11650
1350342091,5805,78.1900024414062500,24.5303001403808600,35.2538986206054700,246.6708068847656200,21.0577106475830080,24.5207901000976560,27.5894203186035160,86,129,92,86,61,15029,2180301037,2187154770,2193495570,2149664448,2162665179,2166587657,2168396205,2149280310,805,2,16,898
1350342194,5810,76.5999984741211000,24.7152004241943360,35.2356986999511700,246.3760070800781200,15.3614101409912110,24.6980094909667970,27.5322494506835940,83,133,97,87,58,15025,2182062994,2188771922,2194958281,2149835776,2163957568,2168024923,2169674770,2149422793,3193,2,16,8181
1350342488,5806,74.1600036621093800,24.9267997741699220,35.2394981384277340,246.4801940917968800,8.5745391845703120,24.9094009399414060,27.4447002410888670,80,130,92,86,60,15015,2184125220,2190205302,2194768484,2149997604,2166360612,2170130998,2170763474,2149541312,2422,2,16,49335
1350342555,5810,71.9899978637695300,25.0048007965087900,35.2383003234863300,246.3018035888672000,5.9461002349853520,24.9913291931152340,27.4203891754150400,78,131,94,86,58,15012,2192597504,2199500032,2204492470,2150601225,2170956516,2175372882,2175451282,2150052086,2911,2,16,30296
1350342610,5803,70.1500015258789000,25.0352001190185550,35.2412986755371100,246.2566986083984400,4.0771012306213380,25.0496196746826170,27.3995704650878900,77,129,93,87,58,15019,2196446656,2203402998,2208132827,2151015972,2173621696,2178191040,2177741257,2150309595,2769,2,16,9676
1350342677,5808,68.1399993896484400,25.1667995452880860,35.2499008178710940,246.0169067382812500,0.6946294903755188,25.1551609039306640,27.3685092926025400,78,130,95,86,58,15013,2200842633,2207983030,2212416283,2151520704,2176993691,2181632521,2180402916,2150663835,2487,2,16,64145
1350342755,5810,65.6500015258789000,25.2406005859375000,35.2327995300293000,245.5783996582031200,-1.5386489629745483,25.2248802185058600,27.3601608276367200,73,130,95,86,56,15006,2208327396,2215557476,2219552950,2152328137,2182322843,2187189467,2184731446,2151203922,2301,2,16,40841
1350342810,5811,63.4599990844726560,25.4414005279541000,35.1865005493164060,244.0935974121093800,-5.7534370422363280,25.3565292358398440,27.3730792999267580,70,129,93,87,55,15009,2213427446,2220723446,2224261924,2152973010,2187046701,2191784832,2187993572,2151622308,2212,2,16,23876
1350342865,5807,61.9500007629394500,25.2856998443603500,35.0522994995117200,243.2476043701172000,-4.2926788330078125,25.3108901977539060,27.4278392791748050,72,131,95,86,57,15009,2216638875,2223728822,2226954249,2153410989,2190208512,2194773440,2190156836,2151922688,2374,2,16,36208
1350342968,5808,60.7900009155273440,25.2819004058837900,35.0413017272949200,241.3007965087890600,-3.5702168941497803,25.2883205413818360,27.5218906402587900,69,126,93,85,56,15010,2220222034,2226632356,2229699849,2153812562,2193511396,2198106285,2192717805,2152158582,3412,2,16,54382
1350343107,5806,57.9799995422363300,25.3313007354736330,35.0264015197753900,239.8988952636718800,-5.0282211303710940,25.3338699340820300,27.5661392211914060,66,124,94,86,57,15003,2229851090,2236990134,2239671497,2155494601,2204169316,2207800923,2199091291,2152956333,2647,2,16,29880
1350343174,5806,55.8899993896484400,25.4603996276855470,35.0371017456054700,239.2053070068359400,-8.7876586914062500,25.4513797760009770,27.5509700775146500,64,126,95,85,54,15001,2236358637,2244239817,2246563190,2156699181,2213207433,2216458934,2204988260,2153739830,1828,2,16,8849
1350343241,5807,53.9900016784668000,25.4731006622314450,35.0288009643554700,239.0838928222656200,-9.6146640777587890,25.4772396087646500,27.5461196899414060,65,127,93,86,57,14994,2243951835,2250923648,2252714971,2158082998,2223059538,2226001444,2211812854,2154624731,1172,2,16,7327
1350343308,5809,52.1399993896484400,25.5153999328613280,35.0405998229980500,239.0166015625000000,-10.9363603591918950,25.5185794830322270,27.5329608917236330,63,126,92,85,56,15001,2251700964,2258809051,2261321216,2159512192,2229521965,2231794578,2215680192,2155238345,469,2,16,58662
1350343386,5803,49.3600006103515600,25.5925006866455080,35.0485992431640600,238.9486999511718800,-12.8613195419311520,25.5788002014160160,27.5124893188476560,62,129,97,86,56,14998,2259515428,2265183552,2265958692,2161466560,2242677138,2243864539,2223970066,2156423899,183,2,16,35961
1350343441,5812,46.7799987792968750,25.5881996154785160,35.0304985046386700,238.9295959472656200,-14.3798103332519530,25.6263294219970700,27.4946098327636720,60,127,93,85,54,14988,2276540973,2283862902,2285811739,2166212918,2255209755,2255235446,2231809929,2157776027,3248,1,16,65019
1350343496,5810,44.2000007629394500,25.8988990783691400,35.0633010864257800,237.4622955322265600,-22.5949802398681640,25.8836994171142580,27.4596004486084000,60,123,95,84,55,14992,2282285760,2290329133,2291343881,2168659565,2269081152,2268068790,2240539072,2159287643,2354,1,17,41996
1350343551,5810,41.9700012207031250,25.9575004577636720,35.0750007629394500,236.5738983154297000,-24.7579402923584000,25.9515399932861330,27.4728603363037100,59,123,91,86,55,14994,2285925110,2293302674,2293103826,2170869869,2282795318,2280451218,2248830162,2160765202,1913,2,16,24206
1350343606,5809,39.5600013732910160,25.9727993011474600,35.0774993896484400,236.1510009765625000,-25.3318004608154300,25.9695396423339840,27.4848308563232420,59,122,95,84,55,14989,2302557558,2312348845,2314183433,2177933476,2298169270,2293560201,2257166957,2162431259,1666,3,16,31317
1350343661,5804,36.9199981689453100,25.9792995452880860,35.0777015686035160,235.7752990722656200,-25.6227092742919920,25.9786605834960940,27.4981708526611330,58,123,93,85,52,14988,2309251035,2318032594,2318858459,2181872448,2315898742,2309406244,2267811017,2164937938,1694,1,16,19404
1350343719,5810,33.9799995422363300,25.9808006286621100,35.0793991088867200,235.7209014892578000,-25.7541103363037100,25.9827899932861330,27.4989795684814450,57,123,93,86,56,14987,2322085458,2331002331,2332151734,2189498230,2337751561,2329232576,2281522624,2167585380,1516,2,16,64589
1350343774,5810,31.1599998474121100,25.9841003417968750,35.0787010192871100,235.7458038330078000,-25.9827709197998050,25.9899597167968750,27.4951496124267580,56,122,90,85,50,14980,2339946477,2349879424,2353236544,2201205650,2357622957,2348742802,2295729517,2171478857,1290,2,16,12048
1350343829,5809,28.2299995422363280,25.9867000579834000,35.0784988403320300,235.8305969238281200,-26.0948791503906250,25.9934806823730470,27.4900093078613280,56,123,96,86,52,14985,2362782144,2376254418,2382890139,2219584859,2376754962,2362681590,2303404544,2173701549,1410,1,16,13203
1350343884,5809,25.0900001525878900,25.9871997833251950,35.0784988403320300,235.8471069335937500,-26.0427608489990230,25.9918403625488280,27.4897804260253900,56,123,92,86,55,14987,2380886802,2395576237,2402687570,2233920941,2406270518,2389180736,2321703021,2179966363,1513,2,16,18237
